AirNav   Air Wisconsin Up To $57,000 Bonus
 
 1103 users online  

KVLA Vandalia Municipal Airport
Vandalia, Illinois, USA

GOING TO VANDALIA?


FAA INFORMATION EFFECTIVE 07 OCTOBER 2021

Location

FAA Identifier: VLA
Lat/Long: 38-59-29.2770N 089-09-58.2820W
38-59.487950N 089-09.971367W
38.9914658,-89.1661894
(estimated)
Elevation: 537.2 ft. / 163.7 m (surveyed)
Variation: 01W (2005)
From city: 3 miles NW of VANDALIA, IL
Time zone: UTC -5 (UTC -6 during Standard Time)
Zip code: 62471

Airport Operations

Airport use: Open to the public
Activation date: 07/1944
Control tower: no
ARTCC: KANSAS CITY CENTER
FSS: SAINT LOUIS FLIGHT SERVICE STATION
NOTAMs facility: STL (NOTAM-D service available)
Attendance: ALL/IRREGULAR/
Wind indicator: lighted
Segmented circle: yes
Lights: ACTVT REIL RWY 18, 27 & 36; PAPI RWY 18; MIRL RWY 09/27 - CTAF. MIRL RWY 18/36 PRESET TO LOW INTST, TO INCR INTST - CTAF.
Beacon: white-green (lighted land airport)
Operates sunset to sunrise.

Airport Communications

CTAF/UNICOM: 122.8
WX AWOS-AV: 122.8 (618-283-9595)
WX AWOS-AV at GRE (14 nm SW): 123.05 (618-664-1939)
  • APCH/DEP SVC PRVDD BY KANSAS CITY ARTCC ON FREQS 124.3/269.15 (DECATUR RCAG)

Nearby radio navigation aids

VOR radial/distance  VOR name  Freq  Var
VLAr178/6.1VANDALIA VOR/DME114.3004E
BIBr275/32.2BIBLE GROVE VORTAC109.0003E
ENLr355/34.3CENTRALIA VORTAC115.0004E
TOYr063/38.3TROY VORTAC116.0004E

 
NDB name  Hdg/Dist  Freq  Var  ID
SHELBYVILLE213/29.136502WSYZ ... -.-- --..

Airport Services

Fuel available: 100LL JET-A
100LL:FUEL IS SELF-SERVE WITH CREDIT CARD.
Parking: hangars and tiedowns
Airframe service: MAJOR
Powerplant service: MAJOR
Bottled oxygen: NONE
Bulk oxygen: NONE

Runway Information

Runway 18/36

Dimensions: 3751 x 100 ft. / 1143 x 30 m
Surface: asphalt/porous friction courses, in good condition
Weight bearing capacity: 
Single wheel: 21.0
Runway edge lights: medium intensity
RUNWAY 18  RUNWAY 36
Latitude: 38-59.855173N38-59.237187N
Longitude: 089-10.037287W089-10.032815W
Elevation: 530.1 ft.533.0 ft.
Traffic pattern: leftleft
Runway heading: 181 magnetic, 180 true001 magnetic, 360 true
Markings: nonprecision, in good conditionnonprecision, in good condition
Visual slope indicator: 4-light PAPI on left (3.00 degrees glide path)
Runway end identifier lights: yesyes
Touchdown point: yes, no lightsyes, no lights
Obstructions: 18 ft. road, 575 ft. from runway, 284 ft. left of centerline, 20:1 slope to clear14 ft. road, 522 ft. from runway, 278 ft. right of centerline, 23:1 slope to clear
APCH SLOPE 23:1 TO RELOCATED THR USING PART 77 SFC.

Runway 9/27

Dimensions: 3001 x 75 ft. / 915 x 23 m
Surface: asphalt, in fair condition
Weight bearing capacity: 
Single wheel: 19.0
Runway edge lights: medium intensity
RUNWAY 9  RUNWAY 27
Latitude: 38-59.413748N38-59.416520N
Longitude: 089-10.208473W089-09.575018W
Elevation: 531.6 ft.537.1 ft.
Traffic pattern: leftleft
Runway heading: 091 magnetic, 090 true271 magnetic, 270 true
Markings: basic, in fair conditionbasic, in fair condition
Runway end identifier lights: yes
Touchdown point: yes, no lightsyes, no lights

Airport Ownership and Management from official FAA records

Ownership: Publicly-owned
Owner: VANDALIA PARK DISTRICT
900 NORTH LOCUST
VANDALIA, IL 62471
Phone 618-283-4973
Manager: CHAD FELDPOUCH
1754 N. 400 ST
VANDALIA, IL 62471
Phone 618-267-8035

Airport Operational Statistics

Aircraft based on the field: 10
Single engine airplanes: 9
Multi engine airplanes: 1
    
Aircraft operations: avg 25/day *
88% local general aviation
11% transient general aviation
<1% air taxi
* for 12-month period ending 31 March 2020

Additional Remarks

A30A-27 8 FT CROPS 200 FT FM RWY END PENETRATING PART 77 SFC.
FOR WX ADVY, 3 CLICKS CTAF. PHONE (618)283-9595.
FOR CD CTC KANSAS CITY ARTCC AT 913-254-8508.

Instrument Procedures

NOTE: All procedures below are presented as PDF files. If you need a reader for these files, you should download the free Adobe Reader.

NOT FOR NAVIGATION. Please procure official charts for flight.
FAA instrument procedures published for use from 07 October 2021 at 0901Z to 04 November 2021 at 0900z.

 
IAPs - Instrument Approach Procedures
RNAV (GPS) RWY 18 **CHANGED**   download (213KB)
RNAV (GPS) RWY 36 **CHANGED**   download (219KB)
VOR RWY 18 **CHANGED**   download (200KB)
NOTE: Special Alternate Minimums apply   download (59KB)
NOTE: Special Take-Off Minimums/Departure Procedures apply   download (201KB)

Other nearby airports with instrument procedures:

KGRE - Greenville Airport (14 nm SW)
KSLO - Salem-Leckrone Airport (23 nm SE)
3LF - Litchfield Municipal Airport (26 nm NW)
KENL - Centralia Municipal Airport (29 nm S)
2H0 - Shelby County Airport (29 nm NE)
 
Loc | Ops | Rwys | IFR | FBO | Links
Com | Nav | Svcs | Stats | Notes
Area around KVLA (Vandalia Municipal Airport)
 
Road maps at: MapQuest Bing Google
 
Aerial photo
WARNING: Photo may not be current or correct
Aerial photo of KVLA (Vandalia Municipal Airport)
Photo by Kathy Heckler
Photo taken 05-Sep-2020
looking east.

Do you have a better or more recent aerial photo of Vandalia Municipal Airport that you would like to share? If so, please send us your photo.

 
Sectional chart

 
Airport distance calculator
Flying to Vandalia Municipal Airport? Find the distance to fly.

From to KVLA

Sunrise and sunset
Times for 15-Oct-2021
 Local
(UTC-5)
 Zulu
(UTC)
Morning civil twilight06:4011:40
Sunrise07:0712:07
Sunset18:1823:18
Evening civil twilight18:4523:45

Current date and time
Zulu (UTC)  15-Oct-2021 23:52:33
Local (UTC-5)  15-Oct-2021 18:52:33
 
METAR
KSLO 
23nm SE 
152335Z AUTO 32010G16KT 3SM +VCTSRA BKN008 OVC014 15/15 A2992 RMK AO2 LTG DSNT SE P0010 T01480145
K3LF 
26nm NW 
152335Z AUTO 34013G16KT 7SM RA OVC050 11/09 A2997 RMK AO2 LTG DSNT SE T01110086
KENL 
29nm S 
152335Z AUTO 32014G20KT 5SM VCTSRA BKN007 BKN037 OVC060 14/14 A2992 RMK AO2 P0011 T01430137
K1H2 
30nm E 
152335Z AUTO 31010KT 10SM -RA SCT007 BKN013 OVC020 14/13 A2992 RMK AO2 LTG DSNT S T01430130
KTAZ 
33nm N 
152335Z AUTO 35008KT 10SM RA SCT041 SCT047 OVC060 A2996 RMK AO2 LTG DSNT SE P0002
KFOA 
39nm SE 
152335Z AUTO 33012KT 7SM RA BR 16/16 A2988 RMK AO2 P0007
KALN 
41nm W 
152250Z 33018G24KT 10SM OVC041 13/08 A2997
KBLV 
42nm SW 
152322Z 33015KT 10SM OVC034 14/09 A2993 RMK AO2A SLP137 $
KMVN 
43nm S 
152321Z AUTO VRB03KT 6SM RA OVC009 17/ A2988 RMK AO2 LTG DSNT E AND SE TSB00E15 CIG 005V011 P0003
TAF
KBLV 
42nm SW 
152205Z 1522/1622 33009KT 8000 -SHRA SCT015 BKN025 QNH2989INS BECMG 1600/1601 32009KT 9999 NSW SCT020 BKN040 QNH2995INS BECMG 1604/1605 31009KT 9999 SKC QNH3000INS TEMPO 1616/1621 33010G20KT TX15/1522Z TN09/1610Z
KMVN 
43nm S 
152004Z 1520/1618 31005KT P6SM VCSH BKN016 FM152200 32009G15KT 5SM -SHRA BR OVC007 FM160100 33010G18KT P6SM VCSH OVC012 FM160400 30004KT P6SM SKC FM161600 28007KT P6SM SKC
NOTAMs
Click for the latest NOTAMs
NOTAMs are issued by the DoD/FAA and will open in a separate window not controlled by AirNav.

 

 
 

FBO, Fuel Providers, and Aircraft Ground Support

  
 Business Name 
 
 Contact 
 
 Services / Description 
 
Fuel Prices
 
Comments
  
Vandalia Park District 618-267-8035
no information available

If you are affiliated with Vandalia Park District and would like to show here your services, contact info, web link, logo, and more, click here
100LL Jet A
SS $4.30 $3.00 
 Updated 05-Oct-2021
 
   3 read write
SS=Self service
Update Fuel Prices
 

Would you like to see your business listed on this page?

 If your business provides an interesting product or service to pilots, flight crews, aircraft, or users of the Vandalia Municipal Airport, you should consider listing it here.  To start the listing process, click on the button below
 
Add a business
 

Other Pages about Vandalia Municipal Airport

Update a link
 
Copyright © AirNav, LLC. All rights reserved. Privacy Policy  Contact